Powrót do katalogu

NOAA 16 DEB

AktywnyPO
NORAD 42371·DEBRIS·🇺🇸 United States

Wystrzelony Sep 21, 2000 z Vandenberg Space Force Base

Loading…

Następne Przeloty (najbliższe 24 godziny)

TLE

Starzejące sięSource: Space-Track

Epoka: Sep 10, 2026, 01:20 UTC

1 42371U 00055RP  26253.05612086  .00008975  00000-0  17396-2 0  9990
2 42371  99.0695 194.7939 0027625 162.3595 197.8569 14.63284378554984

Śledź NOAA 16 DEB w czasie rzeczywistym z AllMySat

Download on the App Store